Location: Observatoire
(46.1952°N, 5.3391°E)
Time: 22:27:02
(UTC+01:00)

Tiros 1 despin weight - Pass Details

Date: 22 February 2026
Orbit: 556 x 593 km, 48.2° (Epoch: 3 March)

Event Time Altitude Azimuth Distance (km) Brightness Sun altitude
Rises 18:17:07 0° 287° (WNW) 2,737 ? -1.2°
Reaches altitude 10° 18:19:22 10° 286° (WNW) 1,839 ? -1.6°
Maximum altitude 18:23:34 82° 199° (SSW) 565 ? -2.3°
Drops below altitude 10° 18:27:46 10° 113° (ESE) 1,835 ? -3.0°
Sets 18:30:00 0° 112° (ESE) 2,731 ? -3.4°
